Location: Napa Junction
(38.1874°N, 122.2508°W)
Time: 23:22:57
(UTC+00:00)

COSMOS 2455 - Pass Details

Date: 13 December 2024
Orbit: 901 x 907 km, 67.1° (Epoch: 19 January)

Event Time Altitude Azimuth Distance (km) Brightness Sun altitude
Rises 01:15:52 0° 309° (NW) 3,537 6.3 -5.5°
Reaches altitude 10° 01:20:21 10° 278° (W) 2,588 6.3 -6.3°
Maximum altitude 01:22:12 11° 259° (W) 2,477 6.7 -6.6°
Drops below altitude 10° 01:24:03 10° 241° (WSW) 2,581 7.0 -6.9°
Sets 01:28:32 0° 210° (SSW) 3,514 6.9 -7.7°
